Theta_e
326 324 313 308 296 291 290 295 300 300 301 311 315 312 310 312 317 313 337 342 342 343 347 348 349 351 352 353 353 353 354 354 354 352 352 352 351 350 350 348 347 345 343 340 337 335 333 330 329
314 315 308 302 291 286 291 299 299 303 313 315 315 311 312 314 332 333 334 343 342 344 345 346 349 350 350 352 353 353 354 354 352 351 351 351 350 349 347 345 343 341 338 336 335 334 330 328 327
318 314 303 295 291 291 291 299 303 307 311 313 310 311 312 319 334 335 339 344 342 342 344 347 347 348 349 351 351 352 352 351 350 350 350 350 349 345 342 342 340 338 336 335 334 331 328 325 324
309 307 304 291 291 296 297 301 305 305 307 310 307 303 313 328 334 338 342 345 341 340 343 344 345 347 349 351 351 351 349 348 348 348 349 349 346 343 340 339 338 336 335 334 331 328 326 323 323
308 303 292 290 292 298 302 305 305 303 305 306 306 302 308 335 339 340 343 344 340 339 342 343 343 346 348 350 350 348 347 346 347 347 347 346 345 340 339 338 337 336 333 330 328 326 324 322 321
301 299 289 288 293 300 304 307 307 306 307 307 305 304 310 336 337 337 343 342 342 340 340 342 344 345 346 347 347 345 345 345 345 345 344 344 342 339 338 337 336 334 330 328 326 325 322 320 320
299 294 293 293 295 299 304 310 308 308 307 305 307 303 315 331 337 337 342 341 342 341 340 341 343 344 344 343 342 342 343 343 343 342 341 340 337 336 337 336 334 330 328 326 325 323 321 319 318
304 296 294 296 295 297 306 309 311 308 307 312 309 305 312 330 336 339 342 341 341 340 340 340 340 341 341 340 340 340 341 340 340 339 338 336 335 336 335 333 332 329 328 325 323 321 319 317 316
307 296 294 296 297 300 307 306 312 310 306 310 308 309 330 334 335 336 338 337 339 340 339 339 339 338 337 338 340 340 340 339 338 337 335 332 329 328 328 328 330 328 326 324 322 320 318 318 317
306 299 299 304 305 304 307 309 310 307 305 304 307 313 333 333 332 331 334 334 336 337 337 338 338 338 336 338 338 336 338 335 334 331 329 325 323 322 323 326 328 328 325 323 320 318 318 316 305
307 302 305 306 308 309 307 308 311 308 305 306 306 310 330 330 329 330 332 336 336 338 339 339 338 338 337 336 335 333 332 331 329 328 325 321 322 322 320 320 320 316 321 314 315 313 309 308 307
304 309 310 310 310 309 308 310 309 309 309 311 311 311 328 327 327 328 331 334 335 337 338 340 339 337 336 335 333 331 329 328 327 326 324 320 319 317 316 313 311 310 309 308 307 307 308 308 310
306 308 311 312 312 311 311 309 308 309 313 312 312 312 312 327 327 329 331 334 335 336 338 338 338 335 334 333 332 330 329 328 327 325 323 320 319 316 314 312 311 309 308 304 304 306 308 308 309
309 310 310 311 311 311 309 309 309 311 314 311 311 309 308 318 326 327 328 330 333 335 337 338 336 335 333 332 330 329 329 329 326 325 322 320 319 317 314 312 311 309 309 304 307 307 306 306 307
311 304 307 308 310 309 310 305 306 312 313 311 309 310 311 311 320 326 327 330 333 335 336 337 336 335 332 332 330 328 329 329 325 323 321 320 319 317 314 312 310 309 309 307 307 307 306 305 307
306 305 298 306 308 310 307 299 308 312 311 309 310 311 311 312 313 314 327 328 333 335 335 336 335 334 332 332 330 328 329 327 325 323 320 320 318 317 314 312 310 309 308 308 308 307 304 303 303
303 295 297 300 308 307 305 301 309 312 310 309 310 311 312 313 314 314 315 327 332 333 334 334 333 332 331 332 330 329 329 327 325 323 320 319 318 316 313 311 309 308 308 308 308 305 305 303 301
296 297 297 297 302 305 304 303 308 311 309 309 310 311 311 312 314 316 315 318 328 334 334 335 333 332 331 331 330 330 329 328 325 322 320 319 317 315 311 310 308 308 306 306 305 305 303 304 302
301 299 297 301 306 304 304 304 306 308 308 309 309 308 308 307 312 316 316 315 321 333 332 333 332 332 331 329 327 327 325 325 323 320 320 318 316 314 311 310 308 307 306 306 306 304 303 300 300
301 298 298 302 306 305 303 302 306 308 308 307 309 309 309 310 310 311 312 313 313 329 332 332 331 331 330 330 329 328 327 326 321 318 318 318 315 314 311 309 308 307 304 304 304 304 300 297 302
302 299 299 299 304 305 303 300 303 307 309 310 311 307 309 309 310 312 311 311 311 323 331 331 331 330 330 329 329 326 326 323 318 315 315 316 315 312 311 309 308 306 306 305 305 305 303 299 298
298 305 304 302 300 295 303 291 300 304 305 308 309 311 310 307 311 312 313 312 314 328 331 330 329 328 329 328 326 322 321 316 317 315 314 315 314 313 311 308 307 306 306 305 306 305 303 301 298
300 306 303 303 299 297 296 293 297 303 301 305 308 310 310 312 312 312 312 314 315 328 329 329 327 327 327 326 325 323 320 318 318 315 312 313 313 313 311 307 308 305 305 305 306 303 301 302 300
305 302 301 300 297 288 294 293 294 298 302 305 308 310 309 309 310 311 313 316 315 325 328 326 325 325 325 325 324 321 319 316 315 313 310 311 311 311 311 307 306 304 303 304 305 304 302 301 300
302 297 288 287 287 286 296 293 295 302 305 306 307 309 311 311 309 311 310 310 313 323 324 324 323 322 323 323 322 320 318 316 314 312 310 309 309 308 309 306 305 304 303 305 306 304 302 301 299
298 296 289 283 283 287 296 289 294 304 307 301 301 302 301 307 310 307 308 309 315 323 323 322 321 321 321 321 320 320 319 317 315 313 311 310 309 309 309 306 306 306 304 305 305 304 303 302 301
297 293 299 291 292 287 290 294 300 297 297 298 299 301 299 302 307 309 311 310 312 323 322 320 320 320 320 319 319 318 318 317 315 312 311 309 309 308 308 306 305 305 304 304 303 302 300 300 299
291 293 290 292 283 282 288 289 289 289 292 295 295 298 299 299 307 308 309 312 313 316 323 321 320 318 319 319 319 318 318 317 316 311 308 307 307 307 306 305 305 303 301 301 300 297 297 297 296
286 286 287 288 282 277 279 285 291 290 294 294 295 298 298 301 302 307 309 312 312 315 322 320 320 319 318 318 318 317 317 316 310 309 307 305 306 305 304 303 302 299 298 296 296 295 296 295 294
289 285 285 278 277 280 280 281 294 293 294 297 297 299 301 301 301 307 310 310 311 313 312 313 313 316 317 318 318 316 309 308 305 304 305 304 304 303 302 301 299 297 295 295 294 294 294 293 291
Wind_Speed
6 6 2 4 3 3 10 15 14 17 9 4 3 6 5 3 4 2 4 14 17 14 13 14 19 18 18 19 19 18 18 19 19 19 19 20 19 19 19 17 17 17 16 15 13 13 12 12 10
3 4 2 1 3 3 12 15 17 15 7 2 4 5 7 5 6 10 7 14 17 14 11 13 18 17 20 19 21 19 19 19 20 19 20 20 20 19 19 18 16 16 15 15 14 13 13 12 10
4 2 3 4 5 13 9 9 12 6 6 4 2 3 2 6 8 13 8 18 17 14 12 12 18 17 19 19 20 19 19 19 20 20 20 20 19 20 19 17 16 15 15 15 14 14 13 12 9
2 3 4 2 13 18 18 23 22 9 5 6 3 2 4 5 16 12 15 21 16 14 12 14 17 17 19 20 21 21 21 21 20 19 20 19 19 19 17 16 14 15 15 15 15 14 12 10 9
2 1 3 5 10 18 19 24 14 7 6 6 7 3 3 5 16 17 17 16 17 14 13 13 15 18 19 20 21 20 20 20 20 20 19 19 19 18 16 14 14 15 15 15 14 13 12 10 9
2 3 2 6 12 20 20 19 16 7 5 2 6 5 4 15 17 11 16 16 12 16 13 12 16 19 20 21 21 20 19 20 19 20 20 20 19 17 16 15 15 15 16 15 14 13 12 9 7
4 2 10 10 16 23 23 20 14 4 1 2 1 3 6 8 14 10 15 9 13 14 14 10 11 14 19 20 19 19 19 19 19 20 20 20 19 16 16 17 17 17 17 16 14 13 11 8 6
5 3 16 12 13 24 22 19 16 5 2 1 5 3 5 10 14 14 13 12 11 10 14 12 9 10 10 13 21 21 21 21 20 20 20 19 18 16 17 18 17 18 17 16 14 13 10 7 5
6 6 16 19 17 22 22 19 18 4 4 2 2 1 14 15 14 16 12 8 10 10 12 12 11 8 8 9 14 19 23 21 20 18 19 16 8 10 12 13 17 18 17 16 14 13 10 7 4
12 12 20 16 17 21 25 21 20 7 9 4 3 2 20 20 16 17 16 15 14 15 13 12 12 12 11 9 12 10 13 11 11 11 13 8 7 7 8 13 16 17 16 15 14 13 10 7 3
11 21 17 16 21 21 24 24 18 15 15 7 10 10 20 18 14 17 16 19 19 17 13 13 12 12 14 11 8 6 6 7 8 12 11 8 7 6 5 6 6 5 11 4 6 5 3 3 2
18 24 20 22 22 23 21 20 24 18 19 8 9 6 17 17 18 19 18 16 17 18 17 16 16 13 13 9 9 9 8 8 7 9 13 7 6 8 7 5 5 5 4 6 5 3 4 4 4
21 20 20 21 20 15 15 19 14 21 21 10 11 9 6 20 21 18 18 17 16 17 19 19 17 16 14 14 10 10 10 10 11 11 11 6 9 9 8 7 7 5 5 5 5 5 5 6 7
16 17 20 21 25 21 22 24 13 23 21 16 14 13 10 16 21 19 19 20 21 19 18 19 20 19 16 14 14 11 10 11 11 11 12 9 10 10 10 9 9 7 7 5 5 6 5 5 6
8 17 20 24 19 23 19 28 31 24 23 21 14 18 17 15 18 23 24 23 26 23 23 22 21 20 20 19 14 11 11 12 11 11 14 13 13 13 11 9 9 9 8 9 7 6 5 5 5
17 14 17 8 16 21 14 30 23 19 23 26 22 18 15 15 20 17 23 24 27 24 26 26 20 21 19 18 14 12 12 12 11 11 12 14 14 14 12 10 10 9 8 9 8 8 6 5 6
11 20 24 20 19 20 19 30 26 21 23 26 25 24 22 22 20 19 19 25 26 27 26 25 26 26 22 18 14 13 14 12 11 12 12 12 12 13 12 10 10 11 9 9 9 7 9 9 5
17 24 23 19 9 17 26 29 30 30 21 27 24 22 20 21 26 23 21 21 25 28 27 27 24 26 24 16 13 11 10 10 10 11 13 14 11 13 11 9 10 10 10 9 8 11 6 8 8
17 18 25 16 18 25 20 25 20 14 19 25 22 18 16 14 14 22 20 21 22 27 27 27 26 25 19 16 13 13 14 11 10 11 16 17 11 14 13 10 10 11 12 14 12 9 13 5 8
23 26 29 25 22 22 25 30 26 19 21 13 22 20 18 16 12 10 15 18 16 26 28 26 25 26 23 17 16 13 12 12 10 10 14 16 14 13 10 12 12 14 10 11 11 12 7 4 11
26 31 24 29 19 23 25 31 28 19 18 18 17 10 13 16 17 18 10 12 12 20 27 27 27 27 23 20 14 10 9 7 9 10 12 15 17 13 12 11 12 13 12 13 14 15 16 13 5
27 23 26 27 21 18 3 16 31 16 26 21 18 18 15 11 12 16 18 15 12 21 27 28 28 28 24 24 19 21 17 14 11 13 10 13 17 16 14 12 13 13 11 13 12 12 13 15 14
32 11 20 24 23 12 19 12 32 9 23 21 15 18 15 15 14 18 20 23 18 21 25 25 27 27 27 25 23 19 18 13 11 10 13 15 14 16 15 12 13 12 10 12 14 13 14 14 13
21 23 21 22 17 15 31 18 16 24 29 22 16 15 11 8 11 11 17 21 19 20 22 23 25 24 24 24 24 25 23 19 15 14 11 13 12 12 15 14 14 11 10 12 12 14 16 15 12
21 16 10 12 17 21 25 17 16 29 32 21 11 17 22 16 9 12 11 10 16 22 23 22 25 24 23 24 22 22 21 20 21 19 15 17 14 12 15 14 14 11 11 12 12 12 11 13 12
20 26 16 14 14 17 18 17 23 17 15 18 19 16 21 21 5 3 3 3 8 22 24 22 23 22 21 21 20 18 18 13 13 16 13 13 13 15 17 13 12 11 9 10 10 9 10 12 11
19 24 28 27 27 18 15 19 12 13 15 17 17 19 21 27 15 9 8 5 6 14 20 22 21 20 21 21 17 17 17 17 15 15 13 12 13 11 14 14 14 12 11 12 11 9 8 9 10
10 10 8 13 20 25 9 13 5 12 12 14 17 18 19 25 13 4 6 8 6 9 16 19 20 22 22 21 17 16 17 16 13 11 12 14 12 13 14 14 14 13 12 11 10 5 4 6 1
10 7 4 4 5 5 7 3 5 7 4 9 9 10 14 22 24 10 8 7 7 5 15 18 18 19 19 18 16 15 13 14 10 12 12 15 15 15 15 14 13 10 9 8 9 7 7 5 5
9 4 4 5 4 4 2 5 10 2 3 3 7 12 10 17 22 19 8 8 9 10 10 8 13 15 17 17 15 11 10 11 10 10 11 14 15 13 14 13 11 10 11 9 9 8 7 8 8
Wind_Direction
151 150 150 26 32 103 250 248 238 267 285 273 105 86 155 163 69 258 133 109 122 137 145 142 136 137 134 132 136 133 132 129 124 121 118 117 115 112 110 109 107 110 111 110 105 98 89 80 73
195 178 13 265 158 252 262 248 258 273 152 167 83 51 42 103 93 118 105 140 135 137 146 145 138 138 140 138 137 138 135 132 127 124 124 123 120 116 111 107 108 113 113 111 106 98 88 79 66
323 332 79 174 212 236 259 256 279 279 90 93 42 59 88 96 117 140 157 139 134 142 144 147 140 138 139 135 135 136 132 132 130 130 127 123 117 115 114 113 115 121 120 117 109 100 94 84 67
179 354 307 217 261 263 246 266 257 246 147 134 141 10 51 43 152 151 140 134 136 147 140 149 143 140 136 137 138 138 138 136 134 131 128 123 119 116 117 117 125 125 122 115 110 106 98 89 75
263 305 238 242 250 261 263 262 272 244 185 176 138 216 121 46 109 131 132 134 139 148 142 150 148 144 141 137 135 138 136 134 132 130 127 122 119 121 126 127 129 123 121 117 114 108 101 94 83
304 146 296 258 266 269 270 271 276 234 198 163 137 163 96 138 124 139 136 141 149 131 144 152 158 153 149 142 140 138 137 136 133 130 129 122 124 135 134 134 127 126 125 121 117 114 110 103 96
198 321 258 265 270 288 287 298 305 317 76 45 107 190 119 120 130 124 134 121 126 134 142 149 161 162 154 148 144 141 139 135 133 131 129 128 131 142 141 134 132 134 133 128 128 124 116 112 107
234 201 266 265 276 278 285 295 295 245 172 265 132 155 156 147 130 105 115 122 130 143 143 151 159 159 157 150 142 139 138 137 136 133 133 131 135 144 141 137 142 141 137 135 132 125 123 125 113
230 247 254 253 261 272 283 296 306 295 150 170 112 111 141 137 123 121 125 133 144 150 153 160 154 149 147 149 145 140 139 138 136 138 134 126 140 142 140 141 145 144 142 141 140 137 140 141 132
217 235 247 253 259 272 280 287 299 325 287 235 226 123 141 145 154 153 157 163 167 162 165 168 161 157 148 153 151 149 143 141 143 145 141 134 137 136 141 144 147 144 146 146 146 149 156 145 130
255 246 248 244 253 261 271 283 286 291 283 247 218 210 164 160 163 165 175 174 173 164 167 173 166 164 159 157 149 152 143 147 147 147 145 140 148 142 134 142 144 138 145 145 145 147 145 188 140
267 265 265 259 247 250 257 270 273 273 264 258 274 243 163 168 172 178 179 175 172 169 168 173 173 168 167 166 164 157 153 156 155 158 154 152 154 143 145 140 141 140 140 154 151 152 183 238 168
271 278 288 286 288 285 275 272 275 287 291 271 282 269 205 183 182 185 183 181 170 175 175 173 170 169 175 176 170 167 167 166 162 161 168 160 157 154 152 154 153 163 165 165 163 172 163 137 99
279 296 292 293 280 284 284 282 280 274 279 273 257 260 244 184 189 186 182 183 182 180 177 172 175 174 176 176 177 174 172 171 167 166 174 176 167 160 163 165 167 172 179 164 167 160 135 121 110
296 308 302 282 287 283 287 280 264 266 270 266 249 244 243 238 191 193 190 183 183 185 174 179 179 178 180 182 177 177 180 176 174 170 177 180 173 165 163 167 174 178 182 159 156 128 115 114 114
284 287 271 270 254 263 255 260 263 254 254 254 254 253 243 232 232 198 200 192 186 182 181 175 177 180 183 184 179 180 184 178 179 172 179 186 175 166 165 170 179 174 164 158 149 140 136 123 120
220 256 257 269 255 265 249 267 271 255 234 241 244 244 241 240 232 227 202 196 185 186 183 177 178 179 179 186 180 185 192 184 180 176 179 185 171 171 168 169 175 163 156 157 150 146 146 141 128
234 244 249 253 271 249 259 256 256 259 245 236 235 234 232 231 229 223 221 194 194 184 186 181 180 180 175 174 175 185 193 195 180 178 181 176 170 170 162 167 163 160 155 153 146 150 141 144 143
250 257 259 256 241 264 261 267 273 277 247 235 226 223 223 215 215 220 214 212 192 179 183 183 179 181 174 173 174 183 192 191 182 178 176 180 177 176 167 169 160 166 166 166 155 145 146 137 134
232 247 252 266 263 265 273 279 274 263 269 254 236 224 224 231 220 210 202 203 186 177 181 178 182 178 184 180 178 178 188 193 182 171 177 180 175 181 171 170 172 172 161 161 161 155 145 127 160
228 237 249 250 249 257 269 270 270 262 260 271 261 229 216 215 218 220 200 196 179 173 178 179 178 178 183 181 172 154 171 189 179 182 176 183 177 176 180 175 173 174 174 178 175 166 166 159 175
247 230 248 255 254 258 19 279 278 279 272 267 260 253 257 229 216 209 209 205 173 172 178 180 177 175 179 178 177 172 173 180 194 190 178 179 179 178 175 172 179 178 178 181 181 173 172 161 166
255 254 253 261 261 298 269 249 274 307 273 257 258 256 259 256 254 227 215 209 183 171 179 179 177 177 176 176 179 179 180 178 182 187 169 179 180 180 174 170 182 178 181 182 179 173 171 175 168
266 272 273 272 267 246 247 217 263 261 256 261 254 260 269 286 262 259 251 215 207 170 171 173 176 179 179 178 178 180 179 176 178 183 171 177 179 180 180 169 181 172 176 180 182 180 176 177 178
258 261 264 243 236 243 251 254 230 260 258 267 278 276 280 282 255 211 194 182 172 164 166 171 173 175 176 179 179 181 182 183 185 181 178 174 176 183 185 174 177 178 178 182 183 182 182 179 182
238 235 244 261 239 252 253 237 241 247 291 39 23 4 349 320 226 219 269 133 150 159 160 166 170 168 172 175 177 181 184 186 188 191 184 181 180 180 173 168 172 178 169 176 183 186 184 182 179
266 238 244 254 254 264 246 261 267 33 4 5 359 2 347 330 272 178 155 103 105 148 161 162 165 168 172 176 178 182 185 188 192 188 179 175 173 171 169 166 165 169 176 175 181 190 187 186 179
27 323 260 229 251 250 221 246 254 25 343 349 1 358 350 341 306 196 149 122 176 166 166 162 167 170 172 176 178 182 186 189 185 171 164 161 158 161 165 167 175 171 167 167 167 140 144 118 169
336 331 333 317 15 326 260 171 66 42 359 330 339 354 2 0 345 343 17 18 43 62 153 165 164 163 170 170 176 181 179 184 163 169 158 154 154 158 166 166 163 157 139 141 129 121 128 115 125
244 175 270 96 12 293 276 267 186 218 259 307 337 346 7 25 353 341 35 47 19 29 65 99 131 144 157 162 168 173 145 148 146 143 147 150 152 150 155 152 145 141 129 133 128 127 120 134 130